[[{"header":{"parameterUnit":"m.s-1","parameterCategory":1,"la1":30.2991,"la2":30.254,"lo1":-89.0895,"lo2":-89.0444,"dy":0.0017,"dx":0.0017,"nx":28,"ny":28,"refTime":"2023-03-30T21:00:00:Z","depth":0,"parameterNumber":2,"parameterNumberName":"U-component_of_WINDS"},"data":[0,0,0,0,0,0,0,0,0,0,0,0,0,0,0,0,0,0,0,0,0,0,0,0,0,0,0,0,0,0,0,0,0,0,0,0,0,0,0,0,0,0,0,0,0,0,0,0,0,0,0,0,0,0,0,0,0,0,-5.6285,-5.6286,0,-5.6376,-5.6377,-5.6378,-5.6343,-5.6341,-5.6339,-5.6337,-5.6427,-5.6431,-5.6435,0,0,0,0,0,0,0,0,0,0,0,0,0,-5.6078,-5.6082,-5.6285,-5.6286,-5.6287,-5.6376,-5.6377,-5.6378,-5.6343,-5.6341,-5.6338,-5.6336,-5.6425,-5.6431,-5.6436,0,0,0,0,0,0,0,0,0,0,0,0,0,-5.6169,-5.6084,-5.6285,-5.6281,-5.6281,-5.6376,-5.6377,-5.6379,-5.6344,-5.6341,-5.6338,-5.6335,-5.6424,-5.643,-5.6437,-5.654,0,0,-5.6457,-5.6459,0,0,0,0,0,0,0,0,-5.6163,-5.6176,-5.628,-5.6281,-5.6282,-5.6345,-5.6337,-5.6433,-5.6345,-5.632,-5.6337,-5.6333,-5.6402,-5.641,-5.6434,-5.6544,-5.6548,-5.6457,-5.6461,-5.6464,-5.6466,0,0,0,0,0,0,0,-5.6157,-5.6172,-5.6321,-5.6282,-5.6283,-5.6273,-5.6283,-5.6355,-5.6377,-5.6322,-5.632,-5.6331,-5.6402,-5.6428,-5.6436,-5.6549,-5.6457,-5.6463,-5.6467,-5.6469,-5.6748,-5.6751,0,0,0,0,0,0,-5.6151,-5.6167,-5.6318,-5.6324,-5.6214,-5.628,-5.629,-5.6328,-5.6377,-5.6381,-5.6334,-5.6329,-5.6418,-5.6428,-5.6439,-5.6562,-5.6464,-5.647,-5.6474,-5.6744,-5.6749,-5.6752,0,0,0,0,0,0,-5.6147,-5.6165,-5.6314,-5.6245,-5.6263,-5.6287,-5.6329,-5.6331,-5.6357,-5.6385,-5.6389,-5.6356,-5.6416,-5.643,-5.6515,-5.6564,-5.6473,-5.6479,-5.674,-5.6746,-5.675,-5.6809,0,0,0,0,0,0,-5.6141,-5.6164,-5.6203,-5.6246,-5.6267,-5.639,-5.6332,-5.6335,-5.6369,-5.6364,-5.6407,-5.6412,-5.6415,-5.6505,-5.6522,-5.6572,-5.6484,-5.6736,-5.6743,-5.6749,-5.6802,-5.6815,-5.6826,0,0,0,0,0,-5.6134,-5.6216,-5.6206,-5.6224,-5.6318,-5.6393,-5.6404,-5.6407,-5.6373,-5.6413,-5.6431,-5.641,-5.6557,-5.6515,-5.6532,-5.6585,-5.6733,-5.6741,-5.6748,-5.6797,-5.6813,-5.6826,0,0,0,0,0,0,-5.6177,-5.6221,-5.621,-5.6309,-5.6348,-5.6387,-5.6437,-5.6424,-5.6472,-5.6465,-5.6466,-5.6476,-5.6563,-5.6583,-5.6535,-5.6687,-5.664,-5.6651,-5.6671,-5.6686,-5.6697,-5.6689,-5.6489,0,0,0,0,0,-5.6198,-5.6257,-5.6292,-5.6375,-5.6395,-5.6413,-5.6446,-5.6445,-5.6484,-5.65,-5.6524,-5.6563,-5.6617,-5.6653,-5.6705,-5.6806,-5.6814,-5.6852,-5.6863,-5.6873,-5.6882,-5.6936,-5.6952,-5.6778,-5.6778,-5.6778,0,0,-5.6242,-5.6274,-5.631,-5.6385,-5.6414,-5.6473,-5.6427,-5.6491,-5.6535,-5.6509,-5.6591,-5.6611,-5.6654,-5.6747,-5.679,-5.6766,-5.6933,-5.6883,-5.6891,-5.6894,-5.6946,-5.6962,-5.6977,-5.6783,-5.6782,-5.6782,0,0,-5.6351,-5.6382,-5.6454,-5.6486,-5.6532,-5.6543,-5.6561,-5.6603,-5.6615,-5.6697,-5.6679,-5.6731,-5.6826,-5.6857,-5.6885,-5.7008,-5.699,-5.7025,-5.7086,-5.7139,-5.7152,-5.7164,-5.7206,-5.7221,-5.7035,-5.7035,-5.7035,0,-5.6399,-5.6489,-5.6493,-5.6559,-5.6592,-5.6574,-5.6646,-5.6676,-5.6736,-5.6759,-5.6733,-5.6851,-5.6879,-5.6979,-5.7009,-5.7033,-5.7052,-5.7018,-5.715,-5.7162,-5.7174,-5.7214,-5.723,-5.7039,-5.7039,-5.7038,-5.7038,0,-5.6545,-5.6607,-5.666,-5.6719,-5.6759,-5.6828,-5.6841,-5.6881,-5.6877,-5.6891,-5.6975,-5.7008,-5.7066,-5.7091,-5.7087,-5.719,-5.7174,-5.715,-5.7101,-5.7194,-5.7231,-5.7247,-5.7044,-5.7043,-5.7042,-5.7041,0,0,-5.6681,-5.6744,-5.6763,-5.6789,-5.684,-5.6887,-5.6956,-5.7014,-5.7046,-5.7089,-5.7145,-5.7227,-5.7204,-5.7236,-5.7237,-5.7283,-5.7377,-5.7253,-5.7254,-5.7272,-5.749,-5.7506,-5.7524,-5.7367,-5.737,-5.7372,-5.7485,0,-5.6793,-5.6913,-5.6919,-5.7028,-5.7085,-5.7069,-5.7128,-5.7165,-5.7181,-5.7231,-5.7248,-5.7305,-5.7272,-5.7291,-5.7337,-5.7356,-5.742,-5.7348,-5.7417,-5.7419,-5.7403,-5.7544,-5.7561,-5.7666,-5.75,-5.7503,-5.7505,0,-5.6938,-5.6986,-5.7101,-5.7143,-5.7167,-5.722,-5.7274,-5.7322,-5.7364,-5.7372,-5.7409,-5.7403,-5.7472,-5.7424,-5.7518,-5.7469,-5.7498,-5.7512,-5.7516,-5.752,-5.7465,-5.7548,-5.77,-5.7715,-5.7528,-5.7526,-5.7525,0,-5.7023,-5.7117,-5.7197,-5.7221,-5.7273,-5.731,-5.7334,-5.7372,-5.7407,-5.7454,-5.7476,-5.753,-5.7559,-5.7601,-5.761,-5.7574,-5.7704,-5.7656,-5.771,-5.771,-5.7735,-5.7733,-5.7891,-5.7759,-5.7759,-5.7759,-5.7759,0,-5.7145,-5.7215,-5.7236,-5.7285,-5.7363,-5.737,-5.7447,-5.7468,-5.7503,-5.7555,-5.7546,-5.7594,-5.7604,-5.7655,-5.7663,-5.7739,-5.7753,-5.776,-5.7761,-5.7759,-5.7758,-5.7776,-5.7768,-5.7763,-5.7762,-5.7761,-5.7761,0,-5.7252,-5.7269,-5.7355,-5.7398,-5.741,-5.7466,-5.7502,-5.7549,-5.7564,-5.763,-5.7646,-5.767,-5.773,-5.7743,-5.7814,-5.7819,-5.7909,-5.7904,-5.7895,-5.7893,-5.7945,-5.7939,-5.8117,-5.814,-5.7997,-5.7998,-5.7999,0,-5.7327,-5.7381,-5.743,-5.7464,-5.749,-5.7546,-5.7581,-5.7591,-5.7627,-5.7679,-5.772,-5.7779,-5.7826,-5.7922,-5.7945,-5.7999,-5.7993,-5.8052,-5.8001,-5.7998,-5.7991,-5.7987,-5.7991,-5.8061,-5.8062,-5.8063,-5.8064,0,-5.7458,-5.7464,-5.7516,-5.7571,-5.7614,-5.7657,-5.7699,-5.7727,-5.7742,-5.7784,-5.7846,-5.7883,-5.7956,-5.8013,-5.8068,-5.8091,-5.808,-5.8081,-5.8096,-5.8093,-5.8085,-5.8088,-5.7918,-5.8076,-5.8075,-5.8074,-5.8073,-5.8073,-5.755,-5.7597,-5.7638,-5.7696,-5.7728,-5.7768,-5.7813,-5.7835,-5.7887,-5.7947,-5.795,-5.8016,-5.8056,-5.8129,-5.8155,-5.8207,-5.8189,-5.8211,-5.8216,-5.822,-5.8224,-5.808,-5.8217,-5.8217,-5.8217,-5.8216,-5.8216,0,-5.7679,-5.7705,-5.7758,-5.7817,-5.7862,-5.785,-5.7895,-5.7934,-5.7992,-5.8032,-5.8079,-5.8149,-5.8205,-5.8234,-5.829,-5.8325,-5.8322,-5.8339,-5.8335,-5.8341,-5.8238,-5.8218,-5.8341,-5.8341,-5.8341,-5.8341,-5.8341,-5.8341,-5.7751,-5.7828,-5.784,-5.7933,-5.7959,-5.8024,-5.8051,-5.8087,-5.8118,-5.8197,-5.8244,-5.8263,-5.8297,-5.8356,-5.8407,-5.8414,-5.8434,-5.8454,-5.8458,-5.8361,-5.8348,-5.8336,-5.8317,-5.8459,-5.8459,-5.8555,-5.8556,-5.8557]},{"header":{"parameterUnit":"m.s-1","parameterCategory":1,"la1":30.2991,"la2":30.254,"lo1":-89.0895,"lo2":-89.0444,"dy":0.0017,"dx":0.0017,"nx":28,"ny":28,"refTime":"2023-03-30T21:00:00:Z","depth":0,"parameterNumber":3,"parameterNumberName":"V-component_of_WINDS"},"data":[0,0,0,0,0,0,0,0,0,0,0,0,0,0,0,0,0,0,0,0,0,0,0,0,0,0,0,0,0,0,0,0,0,0,0,0,0,0,0,0,0,0,0,0,0,0,0,0,0,0,0,0,0,0,0,0,0,0,4.4281,4.4282,0,4.4363,4.4364,4.4365,4.4356,4.4355,4.4353,4.4352,4.4432,4.4435,4.4438,0,0,0,0,0,0,0,0,0,0,0,0,0,4.4114,4.4117,4.4281,4.4282,4.4283,4.4363,4.4364,4.4365,4.4356,4.4355,4.4353,4.4352,4.443,4.4434,4.4438,0,0,0,0,0,0,0,0,0,0,0,0,0,4.419,4.4118,4.4281,4.4288,4.429,4.4362,4.4364,4.4365,4.4356,4.4354,4.4353,4.4351,4.4429,4.4434,4.4439,4.4508,0,0,4.4454,4.4456,0,0,0,0,0,0,0,0,4.4185,4.4196,4.4286,4.4288,4.429,4.4347,4.4334,4.4413,4.4357,4.4331,4.4352,4.435,4.4405,4.4412,4.4431,4.4512,4.4515,4.4455,4.4458,4.446,4.4461,0,0,0,0,0,0,0,4.418,4.4192,4.4313,4.4287,4.429,4.4286,4.4295,4.4349,4.4377,4.4333,4.4333,4.4343,4.4405,4.4426,4.4433,4.4516,4.4454,4.4459,4.4462,4.4464,4.4658,4.466,0,0,0,0,0,0,4.4174,4.4188,4.431,4.4316,4.4232,4.4291,4.4301,4.4331,4.4377,4.4382,4.4344,4.4342,4.4419,4.4427,4.4436,4.452,4.446,4.4464,4.4467,4.4656,4.4659,4.4661,0,0,0,0,0,0,4.417,4.4185,4.4307,4.4252,4.4267,4.4296,4.433,4.4333,4.4354,4.4385,4.439,4.4361,4.4418,4.4429,4.449,4.4522,4.4466,4.4471,4.4653,4.4657,4.466,4.4688,0,0,0,0,0,0,4.4165,4.4183,4.4211,4.4253,4.427,4.4362,4.4332,4.4336,4.4363,4.4361,4.4402,4.4407,4.4417,4.4483,4.4495,4.4528,4.4475,4.4651,4.4655,4.4659,4.4685,4.4692,4.4699,0,0,0,0,0,4.4159,4.4214,4.4212,4.4227,4.4305,4.4364,4.4374,4.4385,4.4366,4.4393,4.4413,4.4406,4.4517,4.449,4.4503,4.4538,4.4649,4.4654,4.4658,4.4681,4.4691,4.4698,0,0,0,0,0,0,4.4173,4.422,4.4218,4.4288,4.4322,4.4362,4.4396,4.4394,4.4433,4.443,4.4441,4.445,4.4513,4.4532,4.45,4.4608,4.458,4.4588,4.4593,4.4602,4.4609,4.4602,4.4479,0,0,0,0,0,4.4185,4.423,4.4268,4.4326,4.4344,4.4367,4.4393,4.44,4.4435,4.4448,4.4473,4.4506,4.4549,4.4576,4.4617,4.4688,4.4696,4.4718,4.4725,4.4731,4.4737,4.4776,4.4786,4.4677,4.4677,4.4677,0,0,4.4209,4.424,4.4267,4.433,4.4357,4.4402,4.4379,4.4428,4.4461,4.4455,4.4516,4.4535,4.4573,4.4639,4.467,4.4657,4.477,4.4737,4.4741,4.4745,4.4782,4.4792,4.4802,4.468,4.468,4.4679,0,0,4.4275,4.4304,4.4356,4.4384,4.4426,4.4442,4.4454,4.4495,4.4508,4.4569,4.4566,4.4605,4.4678,4.4706,4.4729,4.4808,4.4802,4.4821,4.4857,4.4895,4.4903,4.4911,4.4939,4.4949,4.4827,4.4827,4.4827,0,4.4299,4.4369,4.4382,4.4432,4.446,4.4458,4.4511,4.4537,4.4589,4.4608,4.4593,4.4686,4.4711,4.4784,4.4804,4.4823,4.4837,4.4816,4.4901,4.4909,4.4916,4.4943,4.4953,4.4829,4.4829,4.4829,4.4829,0,4.4396,4.4444,4.4481,4.4534,4.4566,4.4616,4.4637,4.4667,4.4671,4.4688,4.475,4.4781,4.4828,4.4846,4.485,4.492,4.4911,4.4899,4.4871,4.4928,4.4954,4.4964,4.4832,4.4831,4.4831,4.483,0,0,4.4472,4.4533,4.4547,4.4571,4.4618,4.4655,4.4706,4.4754,4.4779,4.4816,4.4858,4.4921,4.491,4.4937,4.4944,4.4977,4.5037,4.4961,4.4962,4.4973,4.5117,4.5125,4.5137,4.5034,4.5036,4.5038,4.5113,0,4.4543,4.4634,4.4649,4.4728,4.4773,4.4773,4.4817,4.485,4.4868,4.4908,4.4926,4.4971,4.4953,4.497,4.5003,4.5023,4.5066,4.5018,4.5073,4.5075,4.5063,4.515,4.5159,4.5229,4.5123,4.5125,4.5126,0,4.4638,4.4679,4.4764,4.4806,4.4825,4.4865,4.491,4.4948,4.4986,4.4996,4.5027,4.503,4.5082,4.5053,4.5124,4.5091,4.5115,4.5128,4.5131,4.5136,4.5103,4.5157,4.5251,4.5261,4.5142,4.5141,4.5139,0,4.4685,4.4761,4.4822,4.4843,4.4893,4.4921,4.4943,4.4979,4.5007,4.5047,4.5065,4.511,4.5134,4.5168,4.5183,4.516,4.5253,4.5225,4.5262,4.5262,4.5281,4.5279,4.5379,4.5297,4.5297,4.5296,4.5296,0,4.4762,4.4814,4.4844,4.4882,4.4939,4.4955,4.5012,4.5033,4.5065,4.5106,4.5108,4.5146,4.5163,4.5204,4.5216,4.5273,4.5283,4.5293,4.5295,4.5292,4.5291,4.5307,4.5302,4.5299,4.5299,4.5298,4.5298,0,4.4824,4.4847,4.4913,4.4956,4.4968,4.5009,4.5045,4.5081,4.5099,4.515,4.5163,4.5191,4.5239,4.5257,4.5315,4.5323,4.5389,4.5387,4.5376,4.5377,4.5413,4.5409,4.5526,4.5542,4.5449,4.545,4.5451,0,4.4872,4.4912,4.496,4.4988,4.5012,4.5057,4.5087,4.5104,4.5134,4.5181,4.5211,4.5259,4.5298,4.5374,4.5399,4.5443,4.5442,4.5481,4.5449,4.5445,4.5442,4.544,4.5444,4.5486,4.5487,4.5488,4.5488,0,4.4954,4.4964,4.5007,4.5054,4.509,4.5127,4.5164,4.5187,4.5209,4.5243,4.5293,4.5324,4.5384,4.5431,4.5477,4.5498,4.5497,4.5498,4.5509,4.5506,4.5498,4.5503,4.5392,4.5495,4.5494,4.5494,4.5494,4.5493,4.501,4.5046,4.5086,4.5134,4.5164,4.5198,4.5234,4.5258,4.53,4.5351,4.5358,4.5412,4.5448,4.551,4.5534,4.5575,4.5565,4.558,4.5584,4.5588,4.559,4.5492,4.5583,4.5583,4.5583,4.5583,4.5583,0,4.5092,4.5119,4.5163,4.5215,4.5253,4.525,4.5291,4.5322,4.5369,4.5404,4.5444,4.5501,4.5547,4.5576,4.5623,4.565,4.565,4.5661,4.5659,4.5664,4.5597,4.5583,4.566,4.566,4.566,4.566,4.566,4.566,4.514,4.52,4.5215,4.529,4.5315,4.5369,4.5392,4.5424,4.5452,4.5517,4.5556,4.5575,4.5607,4.5656,4.5699,4.5706,4.5722,4.5734,4.5741,4.5677,4.5669,4.5661,4.5648,4.5738,4.5738,4.5804,4.5805,4.5805]}]]